EHI
0 0 0 0 0 0 0 0 0 0 0 0 0 0 0 0 0 0 0 0 0 0 0 0 0 0 0 0 0 0 0 0 0 0 0 0 0 0 0 0 0 0 0 0
0 0 0 0 0 0 0 0 0 0 0 0 0 0 0 0 0 0 0 0 0 0 0 0 0 0 0 0 0 0 0 0 0 0 0 0 0 0 0 0 0 0 0 0
0 0 0 0 0 0 0 0 0 0 0 0 0 0 0 0 0 0 0 0 0 0 0 0 0 0 0 0 0 0 0 0 0 0 0 0 0 0 0 0 0 0 0 0
0 0 0 0 0 0 0 0 0 0 0 0 0 0 0 0 0 0 0 0 0 0 0 0 0 0 0 0 0 0 0 0 0 0 0 0 0 0 0 0 0 0 0 0
0 0 0 0 0 0 0 0 0 0 0 0 0 0 0 0 0 0 0 0 0 0 0 0 0 0 0 0 0 0 0 0 0 0 0 0 0 0 0 0 0 0 0 0
0 0 0 0 0 0 0 0 0 0 0 0 0 0 0 0 0 0 0 0 0 0 0 0 0 0 0 0 0 0 0 0 0 0 0 0 0 0 0 0 0 0 0 0
0 0 0 0 0 0 0 0 0 0 0 0 0 0 0 0 0 0 0 0 0 0 0 0 0 0 0 0 0 0 0 0 0 0 0 0 0 0 0 0 0 0 0 0
0 0 0 0 0 0 0 0 0 0 0 0 0 0 0 0 0 0 0 0 0 0 0 0 0 0 0 0 0 0 0 0 0 0 0 0 0 0 0 0 0 0 0 0
0 0 0 0 0 0 0 0 0 0 0 0 0 0 0 0 0 0 0 0 0 0 0 0 0 0 0 0 0 0 0 0 0 0 0 0 0 0 0 0 0 0 0 0
0 0 0 0 0 0 0 0 0 0 0 0 0 0 0 0 0 0 0 0 0 0 0 0 0 0 0 0 0 0 0 0 0 0 0 0 0 0 0 0 0 0 0 0
0 0 0 0 0 0 0 0 0 0 0 0 0 0 0 0 0 0 0 0 0 0 0 0 0 0 0 0 0 0 0 0 0 0 0 0 0 0 0 0 0 0 0 0
0 0 0 0 0 0 0 0 0 0 0 0 0 0 0 0 0 0 0 0 0 0 0 0 0 0 0 0 0 0 0 0 0 0 0 0 0 0 0 0 0 0 0 0
0 0 0 0 0 0 0 0 0 0 0 0 0 0 0 0 0 0 0 0 0 0 0 0 0 0 0 0 0 0 0 0 0 0 0 0 0 0 0 0 0 0 0 0
0 0 0 0 0 0 0 0 0 0 0 0 0 0 0 0 0 0 0 0 0 0 0 0 0 0 0 0 0 0 0 0 0 0 0 0 0 0 0 0 0 0 0 0
0 0 0 0 0 0 0 0 0 0 0 0 0 0 0 0 0 0 0 0 0 0 0 0 0 0 0 0 0 0 0 0 0 0 0 0 0 0 0 0 0 0 0 0
0 0 0 0 0 0 0 0 0 0 0 0 0 0 0 0 0 0 0 0 0 0 0 0 0 0 0 0 0 0 0 0 0 0 0 0 0 0 0 0 0 0 0 0
0 0 0 0 0 0 0 0 0 0 0 0 0 0 0 0 0 0 0 0 0 0 0 0 0 0 0 0 0 0 0 0 0 0 0 0 0 0 0 0 0 0 0 0
0 0 0 0 0 0 0 0 0 0 0 0 0 0 0 0 0 0 0 0 0 0 0 0 0 0 0 0 0 0 0 0 0 0 0 0 0 0 0 0 0 0 0 0
0 0 0 0 0 0 0 0 0 0 0 0 0 0 0 0 0 0 0 0 0 0 0 0 0 0 0 0 0 0 0 0 0 0 0 0 0 0 0 0 0 0 0 0
0 0 0 0 0 0 0 0 0 0 0 0 0 0 0 0 0 0 0 0 0 0 0 0 0 0 0 0 0 0 0 0 0 0 0 0 0 0 0 0 0 0 0 0
0 0 0 0 0 0 0 0 0 0 0 0 0 0 0 0 0 0 0 0 0 0 0 0 0 0 0 0 0 0 0 0 0 0 0 0 0 0 0 0 0 0 0 0
0 0 0 0 0 0 0 0 0 0 0 0 0 0 0 0 0 0 0 0 0 0 0 0 0 0 0 0 0 0 0 0 0 0 0 0 0 0 0 0 0 0 0 0
0 0 0 0 0 0 0 0 0 0 0 0 0 0 0 0 0 0 0 0 0 0 0 0 0 0 0 0 0 0 0 0 0 0 0 0 0 0 0 0 0 0 0 0
0 0 0 0 0 0 0 0 0 0 0 0 0 0 0 0 0 0 0 0 0 0 0 0 0 0 0 0 0 0 0 0 0 0 0 0 0 0 0 0 0 0 0 0
0 0 0 0 0 0 0 0 0 0 0 0 0 0 0 0 0 0 0 0 0 0 0 0 0 0 0 0 0 0 0 0 0 0 0 0 0 0 0 0 0 0 0 0
0 0 0 0 0 0 0 0 0 0 0 0 0 0 0 0 0 0 0 0 0 0 0 0 0 0 0 0 0 0 0 0 0 0 0 0 0 0 0 0 0 0 0 0
Wind_Speed
2 3 3 3 1 2 4 4 3 1 1 3 5 7 7 5 7 7 7 6 5 4 3 2 1 1 1 2 3 3 4 4 4 3 3 3 3 3 3 3 5 5 5 5
4 4 2 3 4 4 4 4 2 1 1 2 4 8 7 6 7 7 7 6 5 5 3 2 2 1 1 2 3 3 4 4 4 3 3 3 4 3 3 3 4 5 5 5
5 3 2 3 4 4 2 2 2 0 1 1 4 5 5 4 4 4 5 5 5 5 5 4 2 2 2 2 3 3 4 4 4 4 3 2 2 3 3 3 3 4 5 5
4 1 3 3 2 1 2 1 2 1 2 1 2 4 4 4 5 5 5 5 5 5 5 4 3 2 2 2 2 3 3 4 4 4 3 4 4 4 4 4 4 5 5 5
3 1 2 2 2 0 2 1 1 1 1 2 3 4 4 3 6 6 5 5 5 4 4 4 3 3 2 2 2 2 3 3 4 4 4 4 4 4 4 4 5 5 4 5
3 1 1 1 2 2 2 2 2 1 2 4 3 5 5 4 5 4 4 4 4 4 4 4 3 2 2 2 2 2 3 3 4 4 4 4 4 4 5 5 5 4 4 4
2 2 1 1 2 3 2 2 1 2 3 3 2 6 7 2 3 4 4 4 4 4 4 4 4 3 3 2 2 2 3 3 3 3 3 4 4 4 5 5 5 5 4 4
1 1 1 0 1 1 1 2 2 2 3 1 4 7 4 0 2 3 4 4 4 4 4 4 4 4 4 3 3 3 3 3 3 3 3 3 4 3 3 4 5 5 4 4
1 0 1 1 1 1 2 2 1 1 1 4 5 5 6 3 3 3 3 4 4 4 4 4 4 4 4 4 3 3 3 3 3 3 3 4 4 4 4 5 5 4 4 4
1 1 1 0 1 1 2 2 2 3 3 5 4 5 4 4 4 3 3 3 3 3 4 4 4 4 4 4 3 3 3 3 3 3 3 3 4 4 5 5 5 5 5 5
1 2 1 2 4 3 4 3 3 2 3 4 5 3 1 3 3 3 4 3 3 3 4 4 4 4 4 4 4 3 3 3 3 3 3 4 4 4 5 4 5 5 5 6
0 2 3 3 0 2 4 4 5 4 3 4 5 5 2 2 3 4 5 4 4 4 5 5 4 4 4 4 4 4 3 3 3 3 3 4 4 4 4 5 5 5 5 5
1 2 3 2 3 4 4 5 6 3 3 5 6 6 3 2 4 5 5 5 5 5 5 5 5 5 5 5 5 4 4 4 3 3 3 4 4 4 4 5 5 5 5 5
2 4 5 5 3 2 5 7 8 7 6 7 11 11 8 8 8 8 7 7 6 6 6 6 5 5 5 5 5 5 4 4 3 3 3 4 4 4 4 5 5 5 5 5
2 4 5 9 9 8 10 11 11 14 13 11 11 12 14 11 11 10 8 7 6 6 6 6 6 5 5 5 5 4 4 4 3 4 4 4 4 4 4 4 5 4 4 4
2 4 4 7 6 8 12 15 15 15 15 17 17 17 13 10 8 7 7 7 7 7 6 6 6 6 6 5 5 4 5 4 4 4 4 4 4 4 4 4 4 4 4 4
3 3 4 5 4 8 11 10 13 10 11 11 14 12 7 7 7 8 7 7 7 7 7 6 6 6 6 6 5 5 5 4 4 4 4 4 4 4 4 4 4 4 4 4
4 3 3 5 6 8 2 1 5 9 10 12 13 11 9 8 9 9 8 7 7 7 7 6 5 5 5 5 5 4 4 4 5 5 4 4 4 4 4 4 4 4 4 4
6 5 4 4 6 10 6 3 5 6 8 10 12 12 9 6 7 6 4 5 7 7 6 6 5 5 5 5 5 4 5 5 5 5 5 5 4 4 4 4 4 4 4 4
4 5 5 4 6 8 2 2 2 3 6 3 6 7 5 3 6 4 2 4 6 6 5 5 4 4 5 4 4 5 5 5 6 6 5 5 5 5 5 5 5 4 4 4
5 6 8 8 8 10 4 3 4 4 3 1 3 5 5 6 7 6 5 6 6 6 5 5 4 4 4 4 4 6 6 7 6 5 5 5 5 5 5 5 4 4 4 4
8 7 8 7 8 10 4 6 7 5 4 4 5 5 6 8 8 8 8 7 7 6 6 5 5 5 4 4 5 6 7 6 4 4 5 5 5 4 4 4 4 4 4 4
9 8 5 9 9 4 5 8 6 5 6 7 7 8 8 9 9 9 8 8 7 7 6 5 5 5 4 4 5 6 6 4 4 4 5 5 5 4 4 4 4 4 3 3
7 6 7 10 13 13 12 13 12 11 10 10 9 9 8 9 10 10 9 8 7 7 6 5 5 5 5 4 5 6 5 4 5 5 5 4 4 4 4 4 4 4 4 4
8 7 8 12 14 13 12 11 11 10 9 9 9 9 9 9 10 9 9 8 7 6 6 5 5 6 6 5 5 5 5 4 5 5 5 4 4 4 4 4 4 5 5 5
11 12 11 13 12 10 10 7 8 9 9 9 9 9 9 9 10 9 8 8 7 7 6 5 6 7 6 6 6 5 5 5 5 5 5 4 4 4 4 4 4 6 7 8
Wind_Direction
62 102 110 122 117 106 136 148 150 129 11 264 241 252 253 242 230 232 234 232 234 238 243 241 235 244 325 343 345 345 344 348 348 341 335 329 328 326 325 327 326 322 319 315
113 90 95 112 124 126 134 143 129 81 31 290 277 271 261 245 240 240 238 235 234 235 225 217 221 237 289 322 338 338 339 338 340 332 323 311 313 314 318 318 322 322 319 313
93 73 121 128 128 127 116 163 154 113 333 227 291 267 222 210 224 234 235 238 240 238 235 225 223 247 279 311 324 331 333 329 331 328 316 309 302 293 295 310 320 327 322 315
77 54 125 116 99 148 135 133 161 198 258 263 304 276 230 216 229 226 224 224 232 232 233 230 228 239 266 288 305 316 322 325 329 326 316 312 305 306 310 315 314 321 324 321
92 77 108 97 43 79 98 116 164 213 252 266 216 251 251 196 232 229 221 223 229 228 228 228 228 236 252 271 285 301 313 320 328 328 321 312 308 308 309 307 307 316 322 324
82 62 26 54 57 95 137 142 131 160 229 247 214 238 255 205 225 224 216 221 225 223 222 223 223 229 236 255 270 286 300 313 324 326 324 316 310 308 307 308 309 312 313 318
91 96 81 172 151 139 194 213 203 206 220 236 157 240 255 244 224 234 241 241 236 223 218 217 220 227 233 244 262 278 288 302 316 321 323 318 312 307 304 306 308 308 308 311
116 131 105 296 285 199 185 254 271 264 259 265 199 242 256 228 256 257 256 257 247 231 224 227 231 236 239 245 255 268 281 291 303 311 316 315 313 306 304 305 304 305 303 306
358 92 65 353 332 239 179 182 347 301 298 268 244 259 272 204 223 230 236 236 235 229 231 238 240 239 241 243 251 263 273 281 289 299 305 306 309 303 304 304 302 300 298 301
327 262 254 307 204 86 317 156 189 220 257 267 263 252 244 203 213 227 237 240 241 241 245 249 246 243 243 244 247 251 259 271 283 295 301 302 304 303 303 303 303 303 303 300
276 247 223 209 220 206 172 187 216 231 269 275 282 264 180 220 233 255 264 266 262 263 257 252 252 251 249 247 243 242 249 263 275 285 294 297 302 303 304 301 301 302 302 300
335 268 256 244 284 294 241 224 207 235 233 243 276 276 103 234 269 275 278 276 272 268 260 255 253 251 246 241 238 239 242 250 262 273 280 289 296 300 301 303 305 304 301 300
209 236 267 198 178 191 228 221 219 236 252 232 245 260 116 260 278 275 278 284 279 270 263 256 250 247 243 241 237 236 237 243 254 263 272 283 292 299 303 307 308 307 306 306
240 241 246 267 306 217 237 229 213 210 230 240 241 263 267 272 282 289 289 288 283 273 264 259 254 251 246 243 240 238 238 239 246 254 263 275 286 294 301 305 308 309 309 310
244 258 258 269 272 262 257 248 226 223 234 247 259 264 276 283 287 291 288 284 275 270 267 263 261 259 251 245 241 238 237 235 239 245 256 270 283 291 297 301 307 310 313 316
253 266 283 277 264 261 263 252 239 238 241 249 264 274 279 290 288 284 281 273 267 270 270 267 263 259 255 248 242 235 231 229 232 242 254 269 279 286 292 299 303 308 313 315
223 243 273 277 304 291 263 240 218 221 226 232 244 254 276 285 286 288 287 274 268 271 271 264 260 255 252 248 239 234 229 222 228 241 253 262 270 276 285 294 296 300 306 311
211 215 257 288 300 257 259 104 210 226 244 232 246 261 271 281 295 289 277 268 271 274 273 268 263 259 254 248 238 232 224 219 226 237 246 253 262 270 279 283 287 293 297 301
216 218 241 261 277 279 279 223 196 222 267 236 237 255 274 295 292 270 253 256 265 273 274 269 264 263 255 244 232 222 221 222 229 239 245 249 254 262 268 273 280 286 288 293
190 220 239 238 258 262 277 133 166 220 268 224 229 258 276 277 279 297 322 286 279 277 275 271 265 257 249 241 222 219 223 225 233 239 245 247 247 251 258 265 274 279 281 286
182 203 222 233 249 267 274 146 166 231 311 348 248 261 254 250 275 310 309 293 285 282 280 273 261 253 250 238 218 224 229 235 239 240 243 245 243 246 253 262 267 272 277 282
201 199 207 207 225 252 166 163 212 271 323 290 278 270 264 270 284 286 286 284 282 281 277 269 260 258 252 230 218 229 238 243 238 233 237 241 243 243 245 251 260 265 270 276
220 218 218 216 234 281 198 231 265 291 282 284 281 280 276 278 281 282 282 282 278 274 271 262 254 256 251 230 221 234 245 238 227 228 236 241 242 242 245 249 255 260 261 268
232 225 237 253 259 264 263 262 266 265 269 276 279 279 275 275 280 281 280 279 276 271 266 258 253 253 252 239 230 240 245 226 222 232 238 239 240 242 243 246 247 252 253 259
243 210 236 256 269 278 268 257 262 269 272 275 277 275 271 274 277 277 277 275 273 269 262 252 247 252 256 251 242 240 235 220 226 235 237 237 237 240 242 244 248 253 252 258
221 218 229 252 259 263 279 282 277 274 273 273 276 277 275 271 273 275 273 272 271 266 259 250 247 250 254 252 248 240 224 217 223 232 235 234 236 238 243 253 260 248 255 264